{"data":{"norad_id":57461,"epoch":"2026-05-24T19:42:54.471456Z","epoch_age_seconds":97208,"freshness":"FRESH","line1":"1 57461U 23107E   26144.82146379  .00003907  00000+0  15134-3 0  9998","line2":"2 57461  43.0018 273.5588 0001945 253.3630 106.7009 15.27602853156701","mean_motion":15.27602853,"eccentricity":0.0001945,"inclination_deg":43.0018,"raan_deg":273.5588,"arg_perigee_deg":253.363,"mean_anomaly_deg":106.7009,"bstar":0.00015134,"rev_number":15670,"period_min":94.265338479307,"perigee_km":481.64617940324,"apogee_km":484.31515417562,"semimajor_km":6861.1176667894,"source":"CELESTRAK","updated_at":"2026-05-25T13:38:18.323885Z"}}